DW6747 Weather Reports


time (UTC)temp
C
wind
direction
speed
KPH
gust
KPH
rain 1hr
cm
rain 24hr
cm
rain mn
cm
humidity
%
barometer
mb
20260504100138 7 0 0.0 0.0 0.00 0.00 0.00 81 1016.2
20260504080740 6 0 0.0 0.0 0.00 0.00 0.00 82 1016.6
20260504050711 5 0 0.0 0.0 0.00 0.00 0.00 79 1016.8
20260504044603 5 0 0.0 0.0 0.00 0.00 0.00 80 1016.6
20260504042516 5 0 0.0 0.0 0.00 0.00 0.00 78 1016.6
20260504041506 5 0 0.0 0.0 0.00 0.00 0.00 78 1016.7
20260504040451 5 0 0.0 0.0 0.00 0.00 0.00 76 1016.7
20260504035444 5 0 0.0 0.0 0.00 0.00 0.00 77 1016.6
20260504034433 5 0 0.0 0.0 0.00 0.00 0.00 76 1016.6
20260504033400 5 0 0.0 0.0 0.00 0.00 0.00 75 1016.4
20260504032337 5 0 0.0 0.0 0.00 0.00 0.00 74 1016.3
20260504031326 6 0 0.0 0.0 0.00 0.00 0.00 71 1016.2
20260504030342 6 0 0.0 0.0 0.00 0.00 0.00 71 1016.1
20260504025308 6 0 0.0 0.0 0.00 0.00 0.00 72 1016.0
20260504024244 6 0 0.0 0.0 0.00 0.00 0.00 70 1016.1
20260504023237 6 0 0.0 0.0 0.00 0.00 0.00 68 1015.9
20260504022215 7 0 0.0 0.0 0.00 0.00 0.00 68 1016.0
20260504020054 7 0 0.0 0.0 0.00 0.00 0.00 65 1015.9
20260504013906 8 0 0.0 0.0 0.00 0.00 0.00 60 1015.8
20260504012854 8 0 0.0 0.0 0.00 0.00 0.00 57 1015.8
20260504010712 8 0 0.0 0.0 0.00 0.00 0.00 58 1015.6
20260504005725 9 0 0.0 0.0 0.00 0.00 0.00 53 1015.6
20260504004704 10 0 0.0 0.0 0.00 0.00 0.00 52 1015.4
20260504002558 11 0 0.0 0.0 0.00 0.00 0.00 52 1015.3
20260504001548 11 0 0.0 0.0 0.00 0.00 0.00 47 1015.1
20260504000608 12 0 0.0 0.0 0.00 0.00 0.00 44 1015.0
20260503235631 12 0 0.0 0.0 0.00 0.00 0.00 40 1015.0
20260503234608 12 0 0.0 0.0 0.00 0.00 0.00 42 1015.0
20260503233559 13 0 0.0 1.6 0.00 0.00 0.00 34 1014.8
20260503232536 14 74 0.0 0.0 0.00 0.00 0.00 37 1014.8
20260503230350 15 38 0.0 3.2 0.00 0.00 0.00 32 1014.6
20260503225354 15 331 0.0 3.2 0.00 0.00 0.00 29 1014.7
20260503224348 15 52 0.0 4.8 0.00 0.00 0.00 29 1014.8
20260503223359 15 272 0.0 1.6 0.00 0.00 0.00 28 1014.9
20260503222359 15 141 0.0 8.0 0.00 0.00 0.00 29 1014.8
20260503221334 15 271 0.0 8.0 0.00 0.00 0.00 29 1014.6
20260503215202 15 121 0.0 4.8 0.00 0.00 0.00 33 1014.9
20260503213016 15 113 0.0 16.1 0.00 0.00 0.00 29 1014.8
20260503212011 15 240 0.0 11.3 0.00 0.00 0.00 28 1014.6
20260503210950 15 284 0.0 9.7 0.00 0.00 0.00 30 1014.8
20260503205920 15 229 1.6 9.7 0.00 0.00 0.00 29 1014.8
20260503204859 16 122 0.0 14.5 0.00 0.00 0.00 31 1014.9
20260503202716 16 222 0.0 11.3 0.00 0.00 0.00 29 1014.9
20260503201728 15 90 1.6 11.3 0.00 0.00 0.00 29 1015.2
20260503200724 15 31 1.6 9.7 0.00 0.00 0.00 32 1015.1
20260503195657 15 115 1.6 9.7 0.00 0.00 0.00 31 1015.3
20260503194717 15 21 1.6 9.7 0.00 0.00 0.00 34 1015.5
20260503192619 15 126 0.0 9.7 0.00 0.00 0.00 32 1015.8
20260503191636 15 323 1.6 6.4 0.00 0.00 0.00 31 1015.9
20260503190604 15 323 1.6 11.3 0.00 0.00 0.00 35 1016.0
20260503185624 15 125 1.6 11.3 0.00 0.00 0.00 31 1016.0
20260503184552 15 19 1.6 12.9 0.00 0.00 0.00 36 1016.2
20260503183551 14 96 1.6 12.9 0.00 0.00 0.00 32 1016.5
20260503181437 13 268 1.6 14.5 0.00 0.00 0.00 35 1016.4
20260503180457 13 38 1.6 14.5 0.00 0.00 0.00 37 1016.6
20260503175450 13 37 1.6 11.3 0.00 0.00 0.00 35 1016.7
20260503173339 12 355 0.0 9.7 0.00 0.00 0.00 39 1017.0
20260503172325 12 71 1.6 9.7 0.00 0.00 0.00 36 1017.0
20260503171255 11 320 1.6 6.4 0.00 0.00 0.00 39 1017.0
20260503170245 12 308 0.0 12.9 0.00 0.00 0.00 36 1017.1
20260503160205 11 38 1.6 9.7 0.00 0.00 0.00 39 1017.6
20260503150127 10 339 1.6 9.7 0.00 0.00 0.00 41 1017.7
20260503130918 7 0 1.6 8.0 0.00 0.00 0.00 51 1018.1
20260503110647 4 0 0.0 1.6 0.00 0.00 0.00 68 1017.1